Location: Fauquembergues
(50.6005°N, 2.0987°E)
Time: 04:38:47
(UTC+00:00)

SL-08 R/B - Pass Details

Date: 14 July 2020
Orbit: 675 x 738 km, 98.4° (Epoch: 06 August)

Event Time Altitude Azimuth Distance (km) Brightness Sun altitude
Exits shadow 03:01:17 - 181° (S) 2,992 6.1 -7.2°
Reaches altitude 10° 03:03:23 10° 188° (S) 2,167 5.4 -7.0°
Maximum altitude 03:07:58 46° 261° (W) 961 3.7 -6.5°
Drops below altitude 10° 03:12:39 10° 335° (NNW) 2,223 6.2 -6.0°
Sets 03:15:02 0° 341° (NNW) 3,158 7.1 -5.7°
